Location: Dammartin
(48.9032°N, 1.6195°E)
Time: 15:10:17
(UTC+00:00)

BlueWalker 3 - Pass Details

Date: 23 April 2024
Orbit: 482 x 494 km, 53.2° (Epoch: 22 May)

Event Time Altitude Azimuth Distance (km) Brightness Sun altitude
Rises 21:46:53 0° 286° (WNW) 2,580 6.3 -22.3°
Reaches altitude 10° 21:49:08 10° 293° (WNW) 1,699 5.4 -22.5°
Maximum altitude 21:52:49 44° 7° (N) 695 2.9 -22.8°
Enters shadow 21:53:43 37° 46° (NE) 791 2.9 -22.9°
